Year,Month,Day,Hour,Minute,Value (Times are PST for temperature in C)
2021,04,18,00,00,0.10
2021,04,18,00,01,0.10
2021,04,18,00,02,0.00
2021,04,18,00,03,0.00
2021,04,18,00,04,0.00
2021,04,18,00,05,0.00
2021,04,18,00,06,0.00
2021,04,18,00,07,-0.10
2021,04,18,00,08,-0.10
2021,04,18,00,09,-0.10
2021,04,18,00,10,-0.10
2021,04,18,00,11,-0.10
2021,04,18,00,12,-0.10
2021,04,18,00,13,-0.10
2021,04,18,00,14,-0.10
2021,04,18,00,15,-0.10
2021,04,18,00,16,-0.10
2021,04,18,00,17,-0.10
2021,04,18,00,18,-0.20
2021,04,18,00,19,-0.20
2021,04,18,00,20,-0.20
2021,04,18,00,21,-0.20
2021,04,18,00,22,-0.20
2021,04,18,00,23,-0.20
2021,04,18,00,24,-0.20
2021,04,18,00,25,-0.30
2021,04,18,00,26,-0.30
2021,04,18,00,27,-0.30
2021,04,18,00,28,-0.30
2021,04,18,00,29,-0.30
2021,04,18,00,30,-0.30
2021,04,18,00,31,-0.40
2021,04,18,00,32,-0.40
2021,04,18,00,33,-0.40
2021,04,18,00,34,-0.40
2021,04,18,00,35,-0.40
2021,04,18,00,36,-0.50
2021,04,18,00,37,-0.50
2021,04,18,00,38,-0.50
2021,04,18,00,39,-0.50
2021,04,18,00,40,-0.50
2021,04,18,00,41,-0.50
2021,04,18,00,42,-0.60
2021,04,18,00,43,-0.60
2021,04,18,00,44,-0.60
2021,04,18,00,45,-0.60
2021,04,18,00,46,-0.60
2021,04,18,00,47,-0.60
2021,04,18,00,48,-0.70
2021,04,18,00,49,-0.70
2021,04,18,00,50,-0.70
2021,04,18,00,51,-0.70
2021,04,18,00,52,-0.70
2021,04,18,00,53,-0.70
2021,04,18,00,54,-0.70
2021,04,18,00,55,-0.70
2021,04,18,00,56,-0.70
2021,04,18,00,57,-0.70
2021,04,18,00,58,-0.70
2021,04,18,00,59,-0.70
2021,04,18,01,00,-0.80
2021,04,18,01,01,-0.80
2021,04,18,01,02,-0.80
2021,04,18,01,03,-0.80
2021,04,18,01,04,-0.80
2021,04,18,01,05,-0.80
2021,04,18,01,06,-0.90
2021,04,18,01,07,-0.90
2021,04,18,01,08,-0.90
2021,04,18,01,09,-0.90
2021,04,18,01,10,-0.90
2021,04,18,01,11,-1.00
2021,04,18,01,12,-1.00
2021,04,18,01,13,-1.00
2021,04,18,01,14,-1.00
2021,04,18,01,15,-1.10
2021,04,18,01,16,-1.10
2021,04,18,01,17,-1.10
2021,04,18,01,18,-1.10
2021,04,18,01,19,-1.10
2021,04,18,01,20,-1.10
2021,04,18,01,21,-1.10
2021,04,18,01,22,-1.10
2021,04,18,01,23,-1.10
2021,04,18,01,24,-1.10
2021,04,18,01,25,-1.10
2021,04,18,01,26,-1.10
2021,04,18,01,27,-1.20
2021,04,18,01,28,-1.20
2021,04,18,01,29,-1.20
2021,04,18,01,30,-1.20
2021,04,18,01,31,-1.20
2021,04,18,01,32,-1.20
2021,04,18,01,33,-1.20
2021,04,18,01,34,-1.20
2021,04,18,01,35,-1.20
2021,04,18,01,36,-1.30
2021,04,18,01,37,-1.30
2021,04,18,01,38,-1.30
2021,04,18,01,39,-1.30
2021,04,18,01,40,-1.30
2021,04,18,01,41,-1.30
2021,04,18,01,42,-1.30
2021,04,18,01,43,-1.30
2021,04,18,01,44,-1.30
2021,04,18,01,45,-1.20
2021,04,18,01,46,-1.20
2021,04,18,01,47,-1.20
2021,04,18,01,48,-1.10
2021,04,18,01,49,-1.10
2021,04,18,01,50,-1.10
2021,04,18,01,51,-1.10
2021,04,18,01,52,-1.10
2021,04,18,01,53,-1.10
2021,04,18,01,54,-1.10
2021,04,18,01,55,-1.10
2021,04,18,01,56,-1.10
2021,04,18,01,57,-1.10
2021,04,18,01,58,-1.10
2021,04,18,01,59,-1.20
2021,04,18,02,00,-1.20
2021,04,18,02,01,-1.20
2021,04,18,02,02,-1.20
2021,04,18,02,03,-1.20
2021,04,18,02,04,-1.20
2021,04,18,02,05,-1.20
2021,04,18,02,06,-1.20
2021,04,18,02,07,-1.20
2021,04,18,02,08,-1.20
2021,04,18,02,09,-1.30
2021,04,18,02,10,-1.30
2021,04,18,02,11,-1.30
2021,04,18,02,12,-1.30
2021,04,18,02,13,-1.30
2021,04,18,02,14,-1.30
2021,04,18,02,15,-1.30
2021,04,18,02,16,-1.40
2021,04,18,02,17,-1.40
2021,04,18,02,18,-1.40
2021,04,18,02,19,-1.40
2021,04,18,02,20,-1.40
2021,04,18,02,21,-1.40
2021,04,18,02,22,-1.40
2021,04,18,02,23,-1.50
2021,04,18,02,24,-1.50
2021,04,18,02,25,-1.50
2021,04,18,02,26,-1.50
2021,04,18,02,27,-1.60
2021,04,18,02,28,-1.60
2021,04,18,02,29,-1.60
2021,04,18,02,30,-1.60
2021,04,18,02,31,-1.60
2021,04,18,02,32,-1.60
2021,04,18,02,33,-1.60
2021,04,18,02,34,-1.60
2021,04,18,02,35,-1.60
2021,04,18,02,36,-1.60
2021,04,18,02,37,-1.70
2021,04,18,02,38,-1.70
2021,04,18,02,39,-1.70
2021,04,18,02,40,-1.60
2021,04,18,02,41,-1.60
2021,04,18,02,42,-1.60
2021,04,18,02,43,-1.70
2021,04,18,02,44,-1.70
2021,04,18,02,45,-1.70
2021,04,18,02,46,-1.70
2021,04,18,02,47,-1.70
2021,04,18,02,48,-1.70
2021,04,18,02,49,-1.80
2021,04,18,02,50,-1.80
2021,04,18,02,51,-1.80
2021,04,18,02,52,-1.80
2021,04,18,02,53,-1.80
2021,04,18,02,54,-1.90
2021,04,18,02,55,-1.90
2021,04,18,02,56,-1.90
2021,04,18,02,57,-1.90
2021,04,18,02,58,-1.90
2021,04,18,02,59,-1.90
2021,04,18,03,00,-1.90
2021,04,18,03,01,-1.90
2021,04,18,03,02,-1.90
2021,04,18,03,03,-2.00
2021,04,18,03,04,-2.00
2021,04,18,03,05,-2.00
2021,04,18,03,06,-2.10
2021,04,18,03,07,-2.10
2021,04,18,03,08,-2.10
2021,04,18,03,09,-2.10
2021,04,18,03,10,-2.10
2021,04,18,03,11,-2.10
2021,04,18,03,12,-2.20
2021,04,18,03,13,-2.20
2021,04,18,03,14,-2.20
2021,04,18,03,15,-2.20
2021,04,18,03,16,-2.20
2021,04,18,03,17,-2.20
2021,04,18,03,18,-2.20
2021,04,18,03,19,-2.20
2021,04,18,03,20,-2.30
2021,04,18,03,21,-2.30
2021,04,18,03,22,-2.30
2021,04,18,03,23,-2.30
2021,04,18,03,24,-2.30
2021,04,18,03,25,-2.30
2021,04,18,03,26,-2.30
2021,04,18,03,27,-2.40
2021,04,18,03,28,-2.40
2021,04,18,03,29,-2.40
2021,04,18,03,30,-2.40
2021,04,18,03,31,-2.40
2021,04,18,03,32,-2.50
2021,04,18,03,33,-2.50
2021,04,18,03,34,-2.60
2021,04,18,03,35,-2.60
2021,04,18,03,36,-2.60
2021,04,18,03,37,-2.60
2021,04,18,03,38,-2.60
2021,04,18,03,39,-2.70
2021,04,18,03,40,-2.70
2021,04,18,03,41,-2.70
2021,04,18,03,42,-2.70
2021,04,18,03,43,-2.70
2021,04,18,03,44,-2.70
2021,04,18,03,45,-2.70
2021,04,18,03,46,-2.70
2021,04,18,03,47,-2.70
2021,04,18,03,48,-2.80
2021,04,18,03,49,-2.80
2021,04,18,03,50,-2.80
2021,04,18,03,51,-2.80
2021,04,18,03,52,-2.80
2021,04,18,03,53,-2.80
2021,04,18,03,54,-2.80
2021,04,18,03,55,-2.80
2021,04,18,03,56,-2.80
2021,04,18,03,57,-2.80
2021,04,18,03,58,-2.80
2021,04,18,03,59,-2.80
2021,04,18,04,00,-2.80
2021,04,18,04,01,-2.80
2021,04,18,04,02,-2.80
2021,04,18,04,03,-2.80
2021,04,18,04,04,-2.80
2021,04,18,04,05,-2.80
2021,04,18,04,06,-2.80
2021,04,18,04,07,-2.80
2021,04,18,04,08,-2.80
2021,04,18,04,09,-2.80
2021,04,18,04,10,-2.90
2021,04,18,04,11,-2.90
2021,04,18,04,12,-3.00
2021,04,18,04,13,-3.00
2021,04,18,04,14,-3.00
2021,04,18,04,15,-3.10
2021,04,18,04,16,-3.10
2021,04,18,04,17,-3.10
2021,04,18,04,18,-3.10
2021,04,18,04,19,-3.10
2021,04,18,04,20,-3.10
2021,04,18,04,21,-3.10
2021,04,18,04,22,-3.20
2021,04,18,04,23,-3.20
2021,04,18,04,24,-3.20
2021,04,18,04,25,-3.20
2021,04,18,04,26,-3.20
2021,04,18,04,27,-3.20
2021,04,18,04,28,-3.20
2021,04,18,04,29,-3.20
2021,04,18,04,30,-3.20
2021,04,18,04,31,-3.20
2021,04,18,04,32,-3.20
2021,04,18,04,33,-3.20
2021,04,18,04,34,-3.20
2021,04,18,04,35,-3.20
2021,04,18,04,36,-3.20
2021,04,18,04,37,-3.20
2021,04,18,04,38,-3.20
2021,04,18,04,39,-3.20
2021,04,18,04,40,-3.20
2021,04,18,04,41,-3.20
2021,04,18,04,42,-3.20
2021,04,18,04,43,-3.20
2021,04,18,04,44,-3.20
2021,04,18,04,45,-3.20
2021,04,18,04,46,-3.20
2021,04,18,04,47,-3.20
2021,04,18,04,48,-3.20
2021,04,18,04,49,-3.20
2021,04,18,04,50,-3.20
2021,04,18,04,51,-3.30
2021,04,18,04,52,-3.30
2021,04,18,04,53,-3.30
2021,04,18,04,54,-3.30
2021,04,18,04,55,-3.30
2021,04,18,04,56,-3.30
2021,04,18,04,57,-3.30
2021,04,18,04,58,-3.30
2021,04,18,04,59,-3.30
2021,04,18,05,00,-3.30
2021,04,18,05,01,-3.30
2021,04,18,05,02,-3.40
2021,04,18,05,03,-3.40
2021,04,18,05,04,-3.40
2021,04,18,05,05,-3.40
2021,04,18,05,06,-3.40
2021,04,18,05,07,-3.50
2021,04,18,05,08,-3.50
2021,04,18,05,09,-3.50
2021,04,18,05,10,-3.60
2021,04,18,05,11,-3.60
2021,04,18,05,12,-3.60
2021,04,18,05,13,-3.60
2021,04,18,05,14,-3.70
2021,04,18,05,15,-3.70
2021,04,18,05,16,-3.70
2021,04,18,05,17,-3.70
2021,04,18,05,18,-3.70
2021,04,18,05,19,-3.70
2021,04,18,05,20,-3.70
2021,04,18,05,21,-3.70
2021,04,18,05,22,-3.70
2021,04,18,05,23,-3.70
2021,04,18,05,24,-3.70
2021,04,18,05,25,-3.70
2021,04,18,05,26,-3.70
2021,04,18,05,27,-3.70
2021,04,18,05,28,-3.70
2021,04,18,05,29,-3.70
2021,04,18,05,30,-3.70
2021,04,18,05,31,-3.70
2021,04,18,05,32,-3.70
2021,04,18,05,33,-3.70
2021,04,18,05,34,-3.70
2021,04,18,05,35,-3.70
2021,04,18,05,36,-3.70
2021,04,18,05,37,-3.70
2021,04,18,05,38,-3.70
2021,04,18,05,39,-3.70
2021,04,18,05,40,-3.70
2021,04,18,05,41,-3.70
2021,04,18,05,42,-3.70
2021,04,18,05,43,-3.70
2021,04,18,05,44,-3.70
2021,04,18,05,45,-3.70
2021,04,18,05,46,-3.70
2021,04,18,05,47,-3.70
2021,04,18,05,48,-3.70
2021,04,18,05,49,-3.70
2021,04,18,05,50,-3.80
2021,04,18,05,51,-3.80
2021,04,18,05,52,-3.80
2021,04,18,05,53,-3.80
2021,04,18,05,54,-3.90
2021,04,18,05,55,-3.90
2021,04,18,05,56,-3.90
2021,04,18,05,57,-3.90
2021,04,18,05,58,-3.90
2021,04,18,05,59,-3.90
2021,04,18,06,00,-3.90
2021,04,18,06,01,-3.90
2021,04,18,06,02,-4.00
2021,04,18,06,03,-4.00
2021,04,18,06,04,-4.00
2021,04,18,06,05,-4.00
2021,04,18,06,06,-4.10
2021,04,18,06,07,-4.10
2021,04,18,06,08,-4.10
2021,04,18,06,09,-4.10
2021,04,18,06,10,-4.20
2021,04,18,06,11,-4.20
2021,04,18,06,12,-4.20
2021,04,18,06,13,-4.20
2021,04,18,06,14,-4.20
2021,04,18,06,15,-4.20
2021,04,18,06,16,-4.20
2021,04,18,06,17,-4.20
2021,04,18,06,18,-4.20
2021,04,18,06,19,-4.10
2021,04,18,06,20,-4.10
2021,04,18,06,21,-4.10
2021,04,18,06,22,-4.10
2021,04,18,06,23,-4.10
2021,04,18,06,24,-4.20
2021,04,18,06,25,-4.20
2021,04,18,06,26,-4.20
2021,04,18,06,27,-4.20
2021,04,18,06,28,-4.20
2021,04,18,06,29,-4.20
2021,04,18,06,30,-4.30
2021,04,18,06,31,-4.30
2021,04,18,06,32,-4.30
2021,04,18,06,33,-4.30
2021,04,18,06,34,-4.30
2021,04,18,06,35,-4.30
2021,04,18,06,36,-4.40
2021,04,18,06,37,-4.40
2021,04,18,06,38,-4.40
2021,04,18,06,39,-4.50
2021,04,18,06,40,-4.50
2021,04,18,06,41,-4.50
2021,04,18,06,42,-4.50
2021,04,18,06,43,-4.60
2021,04,18,06,44,-4.60
2021,04,18,06,45,-4.60
2021,04,18,06,46,-4.70
2021,04,18,06,47,-4.70
2021,04,18,06,48,-4.70
2021,04,18,06,49,-4.70
2021,04,18,06,50,-4.70
2021,04,18,06,51,-4.80
2021,04,18,06,52,-4.80
2021,04,18,06,53,-4.80
2021,04,18,06,54,-4.80
2021,04,18,06,55,-4.80
2021,04,18,06,56,-4.80
2021,04,18,06,57,-4.80
2021,04,18,06,58,-4.80
2021,04,18,06,59,-4.80
2021,04,18,07,00,-4.80
2021,04,18,07,01,-4.80
2021,04,18,07,02,-4.80
2021,04,18,07,03,-4.80
2021,04,18,07,04,-4.80
2021,04,18,07,05,-4.80
2021,04,18,07,06,-4.80
2021,04,18,07,07,-4.80
2021,04,18,07,08,-4.80
2021,04,18,07,09,-4.80
2021,04,18,07,10,-4.80
2021,04,18,07,11,-4.70
2021,04,18,07,12,-4.70
2021,04,18,07,13,-4.70
2021,04,18,07,14,-4.70
2021,04,18,07,15,-4.70
2021,04,18,07,16,-4.60
2021,04,18,07,17,-4.60
2021,04,18,07,18,-4.60
2021,04,18,07,19,-4.60
2021,04,18,07,20,-4.60
2021,04,18,07,21,-4.60
2021,04,18,07,22,-4.70
2021,04,18,07,23,-4.70
2021,04,18,07,24,-4.70
2021,04,18,07,25,-4.70
2021,04,18,07,26,-4.70
2021,04,18,07,27,-4.70
2021,04,18,07,28,-4.70
2021,04,18,07,29,-4.70
2021,04,18,07,30,-4.70
2021,04,18,07,31,-4.70
2021,04,18,07,32,-4.70
2021,04,18,07,33,-4.80
2021,04,18,07,34,-4.80
2021,04,18,07,35,-4.80
2021,04,18,07,36,-4.80
2021,04,18,07,37,-4.80
2021,04,18,07,38,-4.80
2021,04,18,07,39,-4.80
2021,04,18,07,40,-4.80
2021,04,18,07,41,-4.80
2021,04,18,07,42,-4.80
2021,04,18,07,43,-4.80
2021,04,18,07,44,-4.80
2021,04,18,07,45,-4.80
2021,04,18,07,46,-4.80
2021,04,18,07,47,-4.80
2021,04,18,07,48,-4.80
2021,04,18,07,49,-4.80
2021,04,18,07,50,-4.70
2021,04,18,07,51,-4.70
2021,04,18,07,52,-4.80
2021,04,18,07,53,-4.70
2021,04,18,07,54,-4.70
2021,04,18,07,55,-4.70
2021,04,18,07,56,-4.70
2021,04,18,07,57,-4.70
2021,04,18,07,58,-4.70
2021,04,18,07,59,-4.60
2021,04,18,08,00,-4.60
2021,04,18,08,01,-4.60
2021,04,18,08,02,-4.60
2021,04,18,08,03,-4.60
2021,04,18,08,04,-4.60
2021,04,18,08,05,-4.60
2021,04,18,08,06,-4.60
2021,04,18,08,07,-4.60
2021,04,18,08,08,-4.60
2021,04,18,08,09,-4.60
2021,04,18,08,10,-4.60
2021,04,18,08,11,-4.60
2021,04,18,08,12,-4.60
2021,04,18,08,13,-4.60
2021,04,18,08,14,-4.60
2021,04,18,08,15,-4.60
2021,04,18,08,16,-4.60
2021,04,18,08,17,-4.60
2021,04,18,08,18,-4.60
2021,04,18,08,19,-4.60
2021,04,18,08,20,-4.60
2021,04,18,08,21,-4.60
2021,04,18,08,22,-4.60
2021,04,18,08,23,-4.60
2021,04,18,08,24,-4.60
2021,04,18,08,25,-4.60
2021,04,18,08,26,-4.60
2021,04,18,08,27,-4.60
2021,04,18,08,28,-4.60
2021,04,18,08,29,-4.60
2021,04,18,08,30,-4.60
2021,04,18,08,31,-4.60
2021,04,18,08,32,-4.60
2021,04,18,08,33,-4.60
2021,04,18,08,34,-4.70
2021,04,18,08,35,-4.70
2021,04,18,08,36,-4.70
2021,04,18,08,37,-4.70
2021,04,18,08,38,-4.70
2021,04,18,08,39,-4.70
2021,04,18,08,40,-4.70
2021,04,18,08,41,-4.70
2021,04,18,08,42,-4.70
2021,04,18,08,43,-4.70
2021,04,18,08,44,-4.70
2021,04,18,08,45,-4.70
2021,04,18,08,46,-4.70
2021,04,18,08,47,-4.60
2021,04,18,08,48,-4.60
2021,04,18,08,49,-4.60
2021,04,18,08,50,-4.60
2021,04,18,08,51,-4.60
2021,04,18,08,52,-4.60
2021,04,18,08,53,-4.60
2021,04,18,08,54,-4.60
2021,04,18,08,55,-4.60
2021,04,18,08,56,-4.60
2021,04,18,08,57,-4.60
2021,04,18,08,58,-4.60
2021,04,18,08,59,-4.60
2021,04,18,09,00,-4.50
2021,04,18,09,01,-4.50
2021,04,18,09,02,-4.50
2021,04,18,09,03,-4.50
2021,04,18,09,04,-4.50
2021,04,18,09,05,-4.40
2021,04,18,09,06,-4.40
2021,04,18,09,07,-4.40
2021,04,18,09,08,-4.40
2021,04,18,09,09,-4.40
2021,04,18,09,10,-4.40
2021,04,18,09,11,-4.40
2021,04,18,09,12,-4.40
2021,04,18,09,13,-4.40
2021,04,18,09,14,-4.40
2021,04,18,09,15,-4.40
2021,04,18,09,16,-4.40
2021,04,18,09,17,-4.40
2021,04,18,09,18,-4.40
2021,04,18,09,19,-4.40
2021,04,18,09,20,-4.40
2021,04,18,09,21,-4.30
2021,04,18,09,22,-4.30
2021,04,18,09,23,-4.30
2021,04,18,09,24,-4.20
2021,04,18,09,25,-4.10
2021,04,18,09,26,-4.00
2021,04,18,09,27,-3.90
2021,04,18,09,28,-3.80
2021,04,18,09,29,-3.70
2021,04,18,09,30,-3.60
2021,04,18,09,31,-3.40
2021,04,18,09,32,-3.40
2021,04,18,09,33,-3.30
2021,04,18,09,34,-3.20
2021,04,18,09,35,-3.10
2021,04,18,09,36,-3.00
2021,04,18,09,37,-2.80
2021,04,18,09,38,-2.70
2021,04,18,09,39,-2.60
2021,04,18,09,40,-2.40
2021,04,18,09,41,-2.30
2021,04,18,09,42,-2.20
2021,04,18,09,43,-2.00
2021,04,18,09,44,-1.90
2021,04,18,09,45,-1.80
2021,04,18,09,46,-1.60
2021,04,18,09,47,-1.50
2021,04,18,09,48,-1.30
2021,04,18,09,49,-1.20
2021,04,18,09,50,-1.20
2021,04,18,09,51,-1.20
2021,04,18,09,52,-1.10
2021,04,18,09,53,-1.00
2021,04,18,09,54,-1.00
2021,04,18,09,55,-0.90
2021,04,18,09,56,-0.80
2021,04,18,09,57,-0.80
2021,04,18,09,58,-0.70
2021,04,18,09,59,-0.70
2021,04,18,10,00,-0.60
2021,04,18,10,01,-0.50
2021,04,18,10,02,-0.50
2021,04,18,10,03,-0.40
2021,04,18,10,04,-0.30
2021,04,18,10,05,-0.20
2021,04,18,10,06,-0.20
2021,04,18,10,07,-0.10
2021,04,18,10,08,-0.10
2021,04,18,10,09,-0.10
2021,04,18,10,10,0.00
2021,04,18,10,11,0.00
2021,04,18,10,12,0.10
2021,04,18,10,13,0.20
2021,04,18,10,14,0.20
2021,04,18,10,15,0.30
2021,04,18,10,16,0.40
2021,04,18,10,17,0.50
2021,04,18,10,18,0.60
2021,04,18,10,19,0.60
2021,04,18,10,20,0.70
2021,04,18,10,21,0.80
2021,04,18,10,22,0.90
2021,04,18,10,23,0.90
2021,04,18,10,24,1.00
2021,04,18,10,25,1.10
2021,04,18,10,26,1.20
2021,04,18,10,27,1.30
2021,04,18,10,28,1.30
2021,04,18,10,29,1.40
2021,04,18,10,30,1.40
2021,04,18,10,31,1.50
2021,04,18,10,32,1.50
2021,04,18,10,33,1.60
2021,04,18,10,34,1.70
2021,04,18,10,35,1.70
2021,04,18,10,36,1.70
2021,04,18,10,37,1.80
2021,04,18,10,38,1.80
2021,04,18,10,39,1.80
2021,04,18,10,40,1.80
2021,04,18,10,41,1.70
2021,04,18,10,42,1.70
2021,04,18,10,43,1.70
2021,04,18,10,44,1.70
2021,04,18,10,45,1.70
2021,04,18,10,46,1.70
2021,04,18,10,47,1.80
2021,04,18,10,48,1.90
2021,04,18,10,49,1.90
2021,04,18,10,50,2.00
2021,04,18,10,51,2.10
2021,04,18,10,52,2.20
2021,04,18,10,53,2.30
2021,04,18,10,54,2.40
2021,04,18,10,55,2.50
2021,04,18,10,56,2.60
2021,04,18,10,57,2.70
2021,04,18,10,58,2.70
2021,04,18,10,59,2.80
2021,04,18,11,00,2.80
2021,04,18,11,01,2.90
2021,04,18,11,02,3.00
2021,04,18,11,03,3.10
2021,04,18,11,04,3.20
2021,04,18,11,05,3.30
2021,04,18,11,06,3.50
2021,04,18,11,07,3.50
2021,04,18,11,08,3.60
2021,04,18,11,09,3.70
2021,04,18,11,10,3.80
2021,04,18,11,11,4.00
2021,04,18,11,12,4.10
2021,04,18,11,13,4.10
2021,04,18,11,14,4.00
2021,04,18,11,15,4.00
2021,04,18,11,16,4.00
2021,04,18,11,17,4.10
2021,04,18,11,18,4.10
2021,04,18,11,19,4.10
2021,04,18,11,20,4.20
2021,04,18,11,21,4.20
2021,04,18,11,22,4.20
2021,04,18,11,23,4.20
2021,04,18,11,24,4.20
2021,04,18,11,25,4.30
2021,04,18,11,26,4.30
2021,04,18,11,27,4.40
2021,04,18,11,28,4.50
2021,04,18,11,29,4.60
2021,04,18,11,30,4.70
2021,04,18,11,31,4.80
2021,04,18,11,32,5.00
2021,04,18,11,33,5.20
2021,04,18,11,34,5.40
2021,04,18,11,35,5.50
2021,04,18,11,36,5.60
2021,04,18,11,37,5.60
2021,04,18,11,38,5.60
2021,04,18,11,39,5.50
2021,04,18,11,40,5.50
2021,04,18,11,41,5.40
2021,04,18,11,42,5.40
2021,04,18,11,43,5.30
2021,04,18,11,44,5.30
2021,04,18,11,45,5.30
2021,04,18,11,46,5.30
2021,04,18,11,47,5.30
2021,04,18,11,48,5.40
2021,04,18,11,49,5.40
2021,04,18,11,50,5.50
2021,04,18,11,51,5.60
2021,04,18,11,52,5.70
2021,04,18,11,53,5.80
2021,04,18,11,54,6.00
2021,04,18,11,55,6.10
2021,04,18,11,56,6.30
2021,04,18,11,57,6.40
2021,04,18,11,58,6.60
2021,04,18,11,59,6.70
2021,04,18,12,00,6.90
2021,04,18,12,01,7.10
2021,04,18,12,02,7.20
2021,04,18,12,03,7.30
2021,04,18,12,04,7.50
2021,04,18,12,05,7.60
2021,04,18,12,06,7.70
2021,04,18,12,07,7.90
2021,04,18,12,08,8.00
2021,04,18,12,09,8.10
2021,04,18,12,10,8.20
2021,04,18,12,11,8.30
2021,04,18,12,12,8.40
2021,04,18,12,13,8.50
2021,04,18,12,14,8.70
2021,04,18,12,15,8.80
2021,04,18,12,16,8.90
2021,04,18,12,17,9.10
2021,04,18,12,18,9.20
2021,04,18,12,19,9.30
2021,04,18,12,20,9.40
2021,04,18,12,21,9.50
2021,04,18,12,22,9.50
2021,04,18,12,23,9.60
2021,04,18,12,24,9.60
2021,04,18,12,25,9.70
2021,04,18,12,26,9.80
2021,04,18,12,27,9.80
2021,04,18,12,28,9.80
2021,04,18,12,29,9.80
2021,04,18,12,30,9.90
2021,04,18,12,31,10.00
2021,04,18,12,32,10.00
2021,04,18,12,33,10.10
2021,04,18,12,34,10.20
2021,04,18,12,35,10.30
2021,04,18,12,36,10.20
2021,04,18,12,37,10.20
2021,04,18,12,38,10.10
2021,04,18,12,39,10.10
2021,04,18,12,40,10.20
2021,04,18,12,41,10.20
2021,04,18,12,42,10.20
2021,04,18,12,43,10.30
2021,04,18,12,44,10.30
2021,04,18,12,45,10.40
2021,04,18,12,46,10.50
2021,04,18,12,47,10.60
2021,04,18,12,48,10.70
2021,04,18,12,49,10.80
2021,04,18,12,50,10.80
2021,04,18,12,51,10.90
2021,04,18,12,52,11.00
2021,04,18,12,53,11.10
2021,04,18,12,54,11.20
2021,04,18,12,55,11.40
2021,04,18,12,56,11.50
2021,04,18,12,57,11.60
2021,04,18,12,58,11.70
2021,04,18,12,59,11.80
2021,04,18,13,00,11.90
2021,04,18,13,01,11.90
2021,04,18,13,02,12.00
2021,04,18,13,03,12.10
2021,04,18,13,04,12.10
2021,04,18,13,05,12.20
2021,04,18,13,06,12.30
2021,04,18,13,07,12.40
2021,04,18,13,08,12.40
2021,04,18,13,09,12.50
2021,04,18,13,10,12.50
2021,04,18,13,11,12.60
2021,04,18,13,12,12.60
2021,04,18,13,13,12.60
2021,04,18,13,14,12.60
2021,04,18,13,15,12.70
2021,04,18,13,16,12.70
2021,04,18,13,17,12.80
2021,04,18,13,18,12.80
2021,04,18,13,19,12.80
2021,04,18,13,20,12.80
2021,04,18,13,21,12.90
2021,04,18,13,22,12.90
2021,04,18,13,23,12.90
2021,04,18,13,24,12.90
2021,04,18,13,25,12.90
2021,04,18,13,26,12.90
2021,04,18,13,27,12.90
2021,04,18,13,28,12.90
2021,04,18,13,29,12.90
2021,04,18,13,30,13.00
2021,04,18,13,31,13.00
2021,04,18,13,32,13.10
2021,04,18,13,33,13.10
2021,04,18,13,34,13.10
2021,04,18,13,35,13.10
2021,04,18,13,36,13.10
2021,04,18,13,37,13.10
2021,04,18,13,38,13.10
2021,04,18,13,39,13.10
2021,04,18,13,40,13.20
2021,04,18,13,41,13.20
2021,04,18,13,42,13.20
2021,04,18,13,43,13.20
2021,04,18,13,44,13.20
2021,04,18,13,45,13.30
2021,04,18,13,46,13.30
2021,04,18,13,47,13.30
2021,04,18,13,48,13.30
2021,04,18,13,49,13.30
2021,04,18,13,50,13.30
2021,04,18,13,51,13.40
2021,04,18,13,52,13.40
2021,04,18,13,53,13.40
2021,04,18,13,54,13.50
2021,04,18,13,55,13.50
2021,04,18,13,56,13.50
2021,04,18,13,57,13.60
2021,04,18,13,58,13.60
2021,04,18,13,59,13.70
2021,04,18,14,00,13.70
2021,04,18,14,01,13.70
2021,04,18,14,02,13.70
2021,04,18,14,03,13.80
2021,04,18,14,04,13.80
2021,04,18,14,05,13.80
2021,04,18,14,06,13.80
2021,04,18,14,07,13.80
2021,04,18,14,08,13.80
2021,04,18,14,09,13.80
2021,04,18,14,10,13.80
2021,04,18,14,11,13.90
2021,04,18,14,12,13.90
2021,04,18,14,13,13.90
2021,04,18,14,14,13.90
2021,04,18,14,15,13.90
2021,04,18,14,16,13.90
2021,04,18,14,17,13.90
2021,04,18,14,18,13.90
2021,04,18,14,19,13.90
2021,04,18,14,20,13.90
2021,04,18,14,21,14.00
2021,04,18,14,22,14.00
2021,04,18,14,23,14.00
2021,04,18,14,24,14.10
2021,04,18,14,25,14.10
2021,04,18,14,26,14.20
2021,04,18,14,27,14.20
2021,04,18,14,28,14.30
2021,04,18,14,29,14.30
2021,04,18,14,30,14.20
2021,04,18,14,31,14.20
2021,04,18,14,32,14.30
2021,04,18,14,33,14.30
2021,04,18,14,34,14.30
2021,04,18,14,35,14.30
2021,04,18,14,36,14.30
2021,04,18,14,37,14.30
2021,04,18,14,38,14.30
2021,04,18,14,39,14.30
2021,04,18,14,40,14.30
2021,04,18,14,41,14.30
2021,04,18,14,42,14.30
2021,04,18,14,43,14.30
2021,04,18,14,44,14.30
2021,04,18,14,45,14.30
2021,04,18,14,46,14.40
2021,04,18,14,47,14.40
2021,04,18,14,48,14.40
2021,04,18,14,49,14.40
2021,04,18,14,50,14.40
2021,04,18,14,51,14.40
2021,04,18,14,52,14.40
2021,04,18,14,53,14.40
2021,04,18,14,54,14.50
2021,04,18,14,55,14.50
2021,04,18,14,56,14.50
2021,04,18,14,57,14.50
2021,04,18,14,58,14.50
2021,04,18,14,59,14.50
2021,04,18,15,00,14.50
2021,04,18,15,01,14.50
2021,04,18,15,02,14.50
2021,04,18,15,03,14.40
2021,04,18,15,04,14.40
2021,04,18,15,05,14.40
2021,04,18,15,06,14.50
2021,04,18,15,07,14.50
2021,04,18,15,08,14.60
2021,04,18,15,09,14.60
2021,04,18,15,10,14.60
2021,04,18,15,11,14.70
2021,04,18,15,12,14.70
2021,04,18,15,13,14.70
2021,04,18,15,14,14.70
2021,04,18,15,15,14.70
2021,04,18,15,16,14.70
2021,04,18,15,17,14.70
2021,04,18,15,18,14.70
2021,04,18,15,19,14.80
2021,04,18,15,20,14.80
2021,04,18,15,21,14.80
2021,04,18,15,22,14.80
2021,04,18,15,23,14.80
2021,04,18,15,24,14.80
2021,04,18,15,25,14.80
2021,04,18,15,26,14.80
2021,04,18,15,27,14.80
2021,04,18,15,28,14.80
2021,04,18,15,29,14.80
2021,04,18,15,30,14.90
2021,04,18,15,31,14.90
2021,04,18,15,32,14.90
2021,04,18,15,33,14.90
2021,04,18,15,34,15.00
2021,04,18,15,35,15.00
2021,04,18,15,36,15.10
2021,04,18,15,37,15.10
2021,04,18,15,38,15.20
2021,04,18,15,39,15.20
2021,04,18,15,40,15.20
2021,04,18,15,41,15.10
2021,04,18,15,42,15.10
2021,04,18,15,43,15.00
2021,04,18,15,44,15.00
2021,04,18,15,45,15.00
2021,04,18,15,46,15.00
2021,04,18,15,47,15.10
2021,04,18,15,48,15.00
2021,04,18,15,49,15.00
2021,04,18,15,50,15.00
2021,04,18,15,51,15.10
2021,04,18,15,52,15.10
2021,04,18,15,53,15.10
2021,04,18,15,54,15.20
2021,04,18,15,55,15.20
2021,04,18,15,56,15.20
2021,04,18,15,57,15.20
2021,04,18,15,58,15.20
2021,04,18,15,59,15.20
2021,04,18,16,00,15.20
2021,04,18,16,01,15.30
2021,04,18,16,02,15.30
2021,04,18,16,03,15.20
2021,04,18,16,04,15.20
2021,04,18,16,05,15.20
2021,04,18,16,06,15.20
2021,04,18,16,07,15.20
2021,04,18,16,08,15.20
2021,04,18,16,09,15.20
2021,04,18,16,10,15.20
2021,04,18,16,11,15.20
2021,04,18,16,12,15.20
2021,04,18,16,13,15.20
2021,04,18,16,14,15.30
2021,04,18,16,15,15.30
2021,04,18,16,16,15.30
2021,04,18,16,17,15.30
2021,04,18,16,18,15.30
2021,04,18,16,19,15.40
2021,04,18,16,20,15.40
2021,04,18,16,21,15.40
2021,04,18,16,22,15.40
2021,04,18,16,23,15.40
2021,04,18,16,24,15.40
2021,04,18,16,25,15.40
2021,04,18,16,26,15.40
2021,04,18,16,27,15.30
2021,04,18,16,28,15.30
2021,04,18,16,29,15.30
2021,04,18,16,30,15.40
2021,04,18,16,31,15.40
2021,04,18,16,32,15.40
2021,04,18,16,33,15.40
2021,04,18,16,34,15.50
2021,04,18,16,35,15.50
2021,04,18,16,36,15.50
2021,04,18,16,37,15.60
2021,04,18,16,38,15.60
2021,04,18,16,39,15.70
2021,04,18,16,40,15.70
2021,04,18,16,41,15.70
2021,04,18,16,42,15.70
2021,04,18,16,43,15.70
2021,04,18,16,44,15.70
2021,04,18,16,45,15.70
2021,04,18,16,46,15.70
2021,04,18,16,47,15.70
2021,04,18,16,48,15.70
2021,04,18,16,49,15.70
2021,04,18,16,50,15.70
2021,04,18,16,51,15.70
2021,04,18,16,52,15.70
2021,04,18,16,53,15.70
2021,04,18,16,54,15.70
2021,04,18,16,55,15.70
2021,04,18,16,56,15.70
2021,04,18,16,57,15.70
2021,04,18,16,58,15.80
2021,04,18,16,59,15.80
2021,04,18,17,00,15.80
2021,04,18,17,01,15.80
2021,04,18,17,02,15.80
2021,04,18,17,03,15.80
2021,04,18,17,04,15.80
2021,04,18,17,05,15.80
2021,04,18,17,06,15.80
2021,04,18,17,07,15.80
2021,04,18,17,08,15.80
2021,04,18,17,09,15.80
2021,04,18,17,10,15.80
2021,04,18,17,11,15.80
2021,04,18,17,12,15.80
2021,04,18,17,13,15.80
2021,04,18,17,14,15.80
2021,04,18,17,15,15.80
2021,04,18,17,16,15.90
2021,04,18,17,17,15.90
2021,04,18,17,18,15.90
2021,04,18,17,19,15.80
2021,04,18,17,20,15.80
2021,04,18,17,21,15.80
2021,04,18,17,22,15.80
2021,04,18,17,23,15.80
2021,04,18,17,24,15.80
2021,04,18,17,25,15.60